{"data":{"norad_id":66009,"epoch":"2026-05-25T03:47:42.425088Z","epoch_age_seconds":57343,"freshness":"FRESH","line1":"1 66009U 25232E   26145.15812992  .00014174  00000+0  48963-3 0  9999","line2":"2 66009  53.1612 108.6916 0000914  77.1528 282.9575 15.30208331 35121","mean_motion":15.30208331,"eccentricity":9.14e-5,"inclination_deg":53.1612,"raan_deg":108.6916,"arg_perigee_deg":77.1528,"mean_anomaly_deg":282.9575,"bstar":0.00048963,"rev_number":3512,"period_min":94.104833363373,"perigee_km":474.56380056226,"apogee_km":475.81658877345,"semimajor_km":6853.3271946679,"source":"CELESTRAK","updated_at":"2026-05-25T13:38:21.013957Z"}}